• In Russia
  • List of Countries
  • For 7 days
  • Water Temperature
  • Satellite Maps
  • Weather Map
  • Weather Widgets
  • user-avatar
    Login

    Hourly Weather Barra

    Today, 17 January, Wednesday

    Time Temperature Precipitation Wind Pressure Humidity
    00:00 +25°C° 1.5 mm 5 mps 746 mmHg 95%
    01:00 +25°C° 1.5 mm 5 mps 746 mmHg 95%
    02:00 +25°C° 2.5 mm 5 mps 746 mmHg 95%
    03:00 +23°C° 2.5 mm 5 mps 746 mmHg 95%
    04:00 +23°C° 0 mm 6 mps 745 mmHg 96%
    05:00 +23°C° 1.6 mm 5 mps 746 mmHg 95%
    06:00 +23°C° 1.6 mm 5 mps 746 mmHg 95%
    07:00 +23°C° 1.6 mm 5 mps 747 mmHg 95%
    08:00 +25°C° 1.3 mm 5 mps 747 mmHg 94%
    09:00 +25°C° 1.3 mm 5 mps 747 mmHg 94%
    10:00 +26°C° 0 mm 5 mps 747 mmHg 91%
    11:00 +26°C° 0.5 mm 5 mps 747 mmHg 89%
    12:00 +26°C° 0.5 mm 5 mps 747 mmHg 88%
    13:00 +27°C° 0.5 mm 5 mps 747 mmHg 86%
    14:00 +26°C° 0.7 mm 5 mps 747 mmHg 88%
    15:00 +26°C° 0.7 mm 5 mps 747 mmHg 90%
    16:00 +26°C° 0 mm 4 mps 747 mmHg 92%
    17:00 +25°C° 0.7 mm 4 mps 747 mmHg 93%
    18:00 +25°C° 0.7 mm 4 mps 747 mmHg 94%
    19:00 +25°C° 0.7 mm 4 mps 747 mmHg 95%
    20:00 +25°C° 0.4 mm 4 mps 748 mmHg 95%
    21:00 +25°C° 0.4 mm 4 mps 748 mmHg 95%
    22:00 +25°C° 0.4 mm 4 mps 748 mmHg 96%
    23:00 +25°C° 0.5 mm 4 mps 748 mmHg 96%

    Tomorrow, 18 January, Thursday

    Time Temperature Precipitation Wind Pressure Humidity
    00:00 +25°C° 0.5 mm 5 mps 748 mmHg 96%
    01:00 +25°C° 0.5 mm 5 mps 748 mmHg 96%
    02:00 +25°C° 0.6 mm 5 mps 748 mmHg 96%
    03:00 +25°C° 0.6 mm 5 mps 747 mmHg 96%
    04:00 +25°C° 0.6 mm 5 mps 747 mmHg 96%
    05:00 +25°C° 1.3 mm 5 mps 747 mmHg 96%
    06:00 +25°C° 1.3 mm 5 mps 748 mmHg 96%
    07:00 +25°C° 1.3 mm 5 mps 748 mmHg 96%
    08:00 +25°C° 1.5 mm 5 mps 748 mmHg 95%
    09:00 +26°C° 1.5 mm 5 mps 748 mmHg 95%
    10:00 +26°C° 1.5 mm 5 mps 748 mmHg 94%
    11:00 +26°C° 1.2 mm 5 mps 748 mmHg 93%
    12:00 +26°C° 1.2 mm 5 mps 748 mmHg 93%
    13:00 +27°C° 1.2 mm 5 mps 747 mmHg 92%
    14:00 +27°C° 1 mm 5 mps 747 mmHg 92%
    15:00 +27°C° 1 mm 5 mps 747 mmHg 92%
    16:00 +26°C° 1 mm 5 mps 746 mmHg 92%
    17:00 +26°C° 1.1 mm 5 mps 747 mmHg 93%
    18:00 +26°C° 1.1 mm 5 mps 747 mmHg 93%
    19:00 +25°C° 1.1 mm 5 mps 747 mmHg 94%
    20:00 +25°C° 0.6 mm 5 mps 748 mmHg 94%
    21:00 +25°C° 0.6 mm 5 mps 748 mmHg 94%
    22:00 +25°C° 0.6 mm 5 mps 749 mmHg 94%
    23:00 +25°C° 0.1 mm 5 mps 748 mmHg 94%

    Day after tomorrow, 19 January, Friday

    Time Temperature Precipitation Wind Pressure Humidity
    00:00 +25°C° 0.1 mm 5 mps 748 mmHg 94%
    01:00 +23°C° 0.1 mm 5 mps 747 mmHg 94%
    02:00 +23°C° 0.1 mm 5 mps 747 mmHg 95%
    03:00 +23°C° 0.1 mm 5 mps 747 mmHg 95%
    04:00 +23°C° 0.1 mm 4 mps 746 mmHg 95%
    05:00 +23°C° 0.1 mm 4 mps 747 mmHg 94%
    06:00 +23°C° 0.1 mm 4 mps 747 mmHg 94%
    07:00 +25°C° 0.1 mm 4 mps 748 mmHg 94%
    08:00 +26°C° 0.1 mm 4 mps 748 mmHg 89%
    09:00 +27°C° 0.1 mm 4 mps 748 mmHg 84%
    10:00 +27°C° 0.1 mm 5 mps 748 mmHg 80%
    11:00 +28°C° 0.1 mm 5 mps 748 mmHg 74%
    12:00 +29°C° 0.1 mm 5 mps 747 mmHg 69%
    13:00 +30°C° 0.1 mm 5 mps 747 mmHg 64%
    14:00 +30°C° 0 mm 5 mps 746 mmHg 64%
    15:00 +30°C° 0 mm 5 mps 746 mmHg 63%
    16:00 +30°C° 0 mm 5 mps 745 mmHg 63%
    17:00 +28°C° 0 mm 4 mps 745 mmHg 69%
    18:00 +27°C° 0 mm 4 mps 746 mmHg 74%
    19:00 +26°C° 0 mm 4 mps 746 mmHg 80%
    20:00 +26°C° 0 mm 4 mps 747 mmHg 83%
    21:00 +25°C° 0 mm 4 mps 747 mmHg 86%
    22:00 +25°C° 0 mm 3 mps 747 mmHg 88%
    23:00 +25°C° 0 mm 3 mps 747 mmHg 89%

    20 January, Saturday

    Time Temperature Precipitation Wind Pressure Humidity
    00:00 +25°C° 0 mm 4 mps 746 mmHg 90%
    01:00 +25°C° 0 mm 4 mps 746 mmHg 91%
    02:00 +24°C° 0.1 mm 3 mps 746 mmHg 92%
    03:00 +24°C° 0.1 mm 3 mps 745 mmHg 93%
    04:00 +24°C° 0.1 mm 3 mps 745 mmHg 94%
    05:00 +24°C° 0 mm 3 mps 746 mmHg 93%
    06:00 +24°C° 0 mm 3 mps 746 mmHg 92%
    07:00 +24°C° 0 mm 3 mps 746 mmHg 91%
    08:00 +26°C° 0 mm 3 mps 746 mmHg 82%
    09:00 +28°C° 0 mm 3 mps 746 mmHg 72%
    10:00 +30°C° 0 mm 3 mps 746 mmHg 63%
    11:00 +30°C° 0 mm 3 mps 746 mmHg 60%
    12:00 +32°C° 0 mm 4 mps 745 mmHg 58%
    13:00 +32°C° 0 mm 4 mps 745 mmHg 55%
    14:00 +32°C° 0 mm 4 mps 744 mmHg 56%
    15:00 +32°C° 0 mm 4 mps 744 mmHg 57%
    16:00 +32°C° 0 mm 4 mps 744 mmHg 58%
    17:00 +29°C° 0 mm 4 mps 744 mmHg 65%
    18:00 +28°C° 0 mm 3 mps 744 mmHg 71%
    19:00 +26°C° 0 mm 3 mps 745 mmHg 78%
    20:00 +26°C° 0 mm 3 mps 745 mmHg 80%
    21:00 +26°C° 0 mm 3 mps 746 mmHg 83%
    22:00 +25°C° 0 mm 3 mps 746 mmHg 86%
    23:00 +25°C° 0 mm 2 mps 746 mmHg 87%

    21 January, Sunday

    Time Temperature Precipitation Wind Pressure Humidity
    00:00 +25°C° 0 mm 2 mps 745 mmHg 89%
    01:00 +25°C° 0 mm 2 mps 745 mmHg 91%
    02:00 +25°C° 0.4 mm 3 mps 745 mmHg 91%
    03:00 +25°C° 0.4 mm 3 mps 744 mmHg 92%
    04:00 +24°C° 0.4 mm 3 mps 744 mmHg 92%
    05:00 +24°C° 1.3 mm 3 mps 744 mmHg 93%
    06:00 +23°C° 1.3 mm 4 mps 745 mmHg 93%
    07:00 +23°C° 1.3 mm 4 mps 745 mmHg 93%
    08:00 +23°C° 2.3 mm 4 mps 746 mmHg 94%
    09:00 +24°C° 2.3 mm 3 mps 746 mmHg 94%
    10:00 +22°C° 2.3 mm 3 mps 746 mmHg 95%
    11:00 +24°C° 2.5 mm 3 mps 746 mmHg 94%
    12:00 +24°C° 2.5 mm 3 mps 745 mmHg 94%
    13:00 +24°C° 2.5 mm 3 mps 745 mmHg 94%
    14:00 +25°C° 0.1 mm 3 mps 745 mmHg 91%
    15:00 +25°C° 0.1 mm 3 mps 745 mmHg 89%
    16:00 +25°C° 0.1 mm 3 mps 745 mmHg 87%
    17:00 +25°C° 0.3 mm 3 mps 745 mmHg 89%
    18:00 +24°C° 0.3 mm 3 mps 745 mmHg 91%
    19:00 +24°C° 0.3 mm 3 mps 745 mmHg 93%
    20:00 +24°C° 0.2 mm 2 mps 746 mmHg 94%
    21:00 +23°C° 0.2 mm 2 mps 746 mmHg 95%
    22:00 +23°C° 0.2 mm 2 mps 746 mmHg 96%
    23:00 +23°C° 0.7 mm 2 mps 746 mmHg 96%

    22 January, Monday

    Time Temperature Precipitation Wind Pressure Humidity
    00:00 +23°C° 0.7 mm 2 mps 745 mmHg 96%
    01:00 +23°C° 0.7 mm 2 mps 745 mmHg 96%
    02:00 +23°C° 1.1 mm 2 mps 745 mmHg 97%
    03:00 +23°C° 1.1 mm 2 mps 744 mmHg 97%
    04:00 +23°C° 1.1 mm 2 mps 744 mmHg 97%
    05:00 +23°C° 0.7 mm 2 mps 744 mmHg 97%
    06:00 +23°C° 0.7 mm 2 mps 745 mmHg 97%
    07:00 +23°C° 0.7 mm 2 mps 745 mmHg 97%
    08:00 +24°C° 0.6 mm 2 mps 745 mmHg 96%
    09:00 +24°C° 0.6 mm 2 mps 745 mmHg 94%
    10:00 +24°C° 0.6 mm 2 mps 745 mmHg 93%
    11:00 +24°C° 1 mm 2 mps 745 mmHg 92%
    12:00 +25°C° 1 mm 2 mps 745 mmHg 91%
    13:00 +25°C° 1 mm 1 mps 744 mmHg 89%
    14:00 +25°C° 0.4 mm 2 mps 744 mmHg 88%
    15:00 +26°C° 0.4 mm 2 mps 743 mmHg 86%
    16:00 +26°C° 0.4 mm 2 mps 743 mmHg 85%
    17:00 +25°C° 0 mm 2 mps 744 mmHg 87%
    18:00 +25°C° 0 mm 2 mps 744 mmHg 89%
    19:00 +24°C° 0 mm 1 mps 744 mmHg 92%
    20:00 +24°C° 0 mm 1 mps 745 mmHg 92%
    21:00 +24°C° 0 mm 1 mps 745 mmHg 93%
    22:00 +23°C° 0 mm 1 mps 745 mmHg 93%
    23:00 +23°C° 0 mm 1 mps 744 mmHg 93%
    Show more